Flag for Australia Weather past 2 weeks in Perth, Western Australia, Australia

Now
55 °F

Clear.


Feels Like: 54 °F
Forecast: 57 / 72 °F
Wind: 6 mph from East

Location: Belmont Perth Airport

Current Time: Sep 1, 2014 at 8:21:56 PM

Latest Report: Sep 1, 2014 at 8:00 PM


Visibility: 10 mi

Pressure: 30.12 "Hg

Humidity: 67%

Dew point: 45 °F

Location of PerthLocation

Historic Weather in Perth — Graph

°F

Perth temperature yesterday

Maximum temperature yesterday: 64 °F (at 3:00 PM)
Minimum temperature yesterday: 46 °F (at 11:00 PM)
Average temperature yesterday: 56 °F

Past Weeks' High & Low Weather Summary

 TemperatureHumidityPressure
High77 °F (Aug 28, 1:00 PM)100% (Aug 18, 2:00 AM)30.24 "Hg (Aug 18, 2:00 AM)
Low45 °F (Aug 24, 3:00 AM)25% (Aug 28, 1:30 PM)29.77 "Hg (Aug 21, 5:30 AM)
Average59 °F77%30.06 "Hg
* Reported Aug 17 7:00 PM — Sep 1 7:00 PM, Perth, Weather by CustomWeather, © 2014

Note: Actual official high and low records may vary slightly from our data, if they occured in-between our weather recording intervals... More about our weather records

Advertising

Perth weather history for previous 24 hours

 ConditionsComfort  
Time TempWeatherWind HumidityBarometerVisibility
7:00 PM
Sep 1
59 °FClear.7 mph63%30.12 "Hg10 mi
6:30 PM57 °FClear.8 mph67%30.12 "Hg10 mi
6:00 PM59 °FPartly cloudy.7 mph59%30.12 "HgN/A
5:30 PM61 °FPartly cloudy.7 mph55%30.12 "HgN/A
5:00 PM63 °FPartly cloudy.10 mph49%30.12 "HgN/A
4:30 PM63 °FBroken clouds.12 mph49%30.12 "HgN/A
4:00 PM64 °FPartly sunny.13 mph46%30.09 "HgN/A
3:30 PM64 °FPartly sunny.14 mph46%30.12 "HgN/A
3:00 PM64 °FPartly sunny.14 mph46%30.12 "HgN/A
2:30 PM64 °FPartly sunny.15 mph43%30.12 "HgN/A
2:00 PM64 °FPartly sunny.13 mph43%30.12 "HgN/A
1:30 PM64 °FPartly sunny.13 mph43%30.12 "HgN/A
1:00 PM64 °FPartly sunny.13 mph43%30.15 "HgN/A
12:30 PM63 °FPartly sunny.17 mph45%30.15 "HgN/A
12:00 PM61 °FPartly sunny.16 mph48%30.21 "HgN/A
11:30 AM63 °FPartly sunny.16 mph45%30.21 "HgN/A
11:00 AM61 °FSunny.15 mph45%30.21 "Hg10 mi
10:30 AM59 °FSunny.20 mph48%30.21 "Hg10 mi
10:00 AM59 °FSunny.15 mph51%30.21 "Hg10 mi
9:30 AM59 °FSunny.15 mph55%30.21 "Hg10 mi
9:00 AM55 °FSunny.15 mph63%30.21 "Hg10 mi
8:30 AM54 °FSunny.17 mph63%30.21 "Hg10 mi
8:00 AM52 °FSunny.17 mph67%30.21 "Hg10 mi
7:30 AM50 °FSunny.16 mph71%30.21 "Hg10 mi
7:00 AM48 °FSunny.14 mph76%30.21 "Hg10 mi
6:30 AM48 °FSunny.13 mph76%30.21 "Hg10 mi
6:00 AM48 °FSunny.12 mph76%30.18 "Hg10 mi
5:00 AM50 °FClear.17 mph71%30.15 "Hg10 mi
4:30 AM50 °FClear.15 mph71%30.15 "Hg10 mi
4:00 AM52 °FClear.15 mph72%30.15 "Hg10 mi
3:30 AM52 °FClear.13 mph67%30.15 "Hg10 mi
3:00 AM52 °FClear.7 mph72%30.15 "Hg10 mi
2:30 AM48 °FClear.5 mph82%30.15 "Hg10 mi
2:00 AM50 °FClear.10 mph76%30.15 "Hg10 mi
1:00 AM46 °FClear.No wind87%30.15 "Hg10 mi
12:30 AM46 °FClear.3 mph87%30.15 "Hg10 mi
12:00 AM46 °FClear.5 mph93%30.15 "Hg10 mi
11:30 PM
Aug 31
46 °FClear.5 mph87%30.18 "Hg10 mi
11:00 PM46 °FClear.2 mph93%30.18 "Hg10 mi
10:30 PM48 °FClear.5 mph87%30.18 "Hg10 mi
10:00 PM48 °FClear.5 mph82%30.18 "Hg10 mi
9:30 PM52 °FClear.5 mph77%30.18 "Hg10 mi
9:00 PM55 °FClear.7 mph63%30.18 "Hg10 mi
8:30 PM55 °FClear.12 mph59%30.15 "Hg10 mi
8:00 PM55 °FClear.12 mph63%30.15 "Hg10 mi
Weather by CustomWeather, © 2014

See weather overviewHow to use our weather pages